Location: Bangkok
(13.7500°N, 100.5170°E)
Time: 22:55:54
(UTC+07:00)

Hubble Space Telescope - Visible Passes

Search period start: 23 June 2018 00:00
Search period end: 03 July 2018 00:00
Orbit: 537 x 541 km, 28.5° (Epoch: 22 June)

Date Brightness Start Highest point End Pass type
(mag) Time Alt. Az. Time Alt. Az. Time Alt. Az.
23 Jun 2.2 19:54:13 10° NW 19:57:49 28° NNE 19:59:59 18° ENE visible
23 Jun 3.9 21:35:02 10° WNW 21:35:20 12° WNW 21:35:20 12° WNW visible
24 Jun 1.8 19:43:42 10° NW 19:47:32 36° NNE 19:50:08 18° E visible
24 Jun 3.6 21:24:50 10° W 21:25:28 14° W 21:25:28 14° W visible
25 Jun 1.4 19:33:15 10° NW 19:37:15 48° NNE 19:40:18 16° E visible
25 Jun 3.4 21:14:44 10° W 21:15:39 15° W 21:15:39 15° W visible
26 Jun 0.9 19:22:50 10° WNW 19:26:56 66° NNE 19:30:31 13° ESE visible
26 Jun 3.3 21:04:48 10° W 21:05:52 15° WSW 21:05:52 15° WSW visible
27 Jun 0.8 19:12:28 10° WNW 19:16:37 90° SSE 19:20:44 10° ESE visible
27 Jun 3.3 20:55:06 10° WSW 20:56:08 13° SW 20:56:08 13° SW visible
28 Jun 3.4 20:45:58 10° SW 20:46:26 11° SW 20:46:26 11° SW visible
